Location: New Frontier Mobile Home Park
(32.8448°N, 116.9675°W)
Time: 23:15:04
(UTC+00:00)

OAO 2 Rocket - Pass Details

Date: 14 July 2020
Orbit: 676 x 746 km, 35.0° (Epoch: 05 August)

Event Time Altitude Azimuth Distance (km) Brightness Sun altitude
Rises 03:27:16 0° 283° (WNW) 3,116 8.4 -6.3°
Reaches altitude 10° 03:29:41 10° 283° (WNW) 2,206 7.3 -6.7°
Maximum altitude 03:34:53 89° 198° (SSW) 734 3.4 -7.7°
Drops below altitude 10° 03:40:11 10° 105° (ESE) 2,238 5.3 -8.6°
Enters shadow 03:40:19 - 105° (ESE) 2,285 5.4 -8.6°
